Date,TemperatureHighF,TemperatureAvgF,TemperatureLowF,DewpointHighF,DewpointAvgF,DewpointLowF,HumidityHigh,HumidityAvg,HumidityLow,PressureMaxIn,PressureMinIn,WindSpeedMaxMPH,WindSpeedAvgMPH,GustSpeedMaxMPH,PrecipitationSumIn
2013-1-1,34,31,25,32,28,20,95,89,81,30.11,29.99,6,1,10,0.00
2013-1-2,29,23,15,20,17,12,90,79,64,30.29,30.08,4,0,10,0.05
2013-1-3,35,21,6,25,16,4,94,80,64,30.30,30.18,6,1,11,0.08
2013-1-4,35,30,28,26,24,21,82,76,65,30.29,30.18,6,2,10,0.01
2013-1-5,37,31,26,30,24,20,92,78,67,30.43,30.18,4,1,8,0.04
2013-1-6,40,35,29,34,30,25,89,82,71,30.23,30.02,4,0,9,0.13
2013-1-7,36,31,18,31,26,16,92,83,70,30.48,30.23,4,0,10,0.04
2013-1-8,46,28,14,34,23,12,96,84,59,30.42,30.29,3,0,7,0.04
2013-1-9,47,33,21,43,31,19,96,92,81,30.52,30.27,4,0,9,0.04
2013-1-10,42,34,24,36,29,22,96,84,69,30.64,30.31,2,0,5,0.00
2013-1-11,52,43,36,50,40,31,97,90,76,30.32,29.98,3,0,8,0.19
2013-1-12,64,50,37,59,48,36,98,94,82,30.11,29.96,3,0,6,0.01
2013-1-13,68,58,45,59,54,44,98,87,70,29.96,29.85,7,1,12,0.22
2013-1-14,58,41,33,57,36,27,97,82,67,30.37,29.87,10,2,18,0.05
2013-1-15,34,31,26,31,26,23,93,82,75,30.42,30.10,4,1,8,0.03
2013-1-16,35,34,33,34,32,31,96,95,91,30.11,29.91,4,0,6,0.38
2013-1-17,36,33,31,31,30,28,93,88,82,30.21,30.04,3,0,6,0.02
2013-1-18,33,28,21,29,19,11,89,67,58,30.53,30.16,9,3,16,0.01
2013-1-19,53,42,28,28,24,18,72,49,33,30.29,29.84,7,2,13,0.04
2013-1-20,48,38,25,34,24,16,71,58,46,30.14,29.78,9,4,18,0.00
2013-1-21,29,24,15,22,16,4,85,73,60,30.12,29.93,8,2,15,0.00
2013-1-22,16,12,9,6,3,1,77,67,57,30.34,30.08,7,3,13,0.00
2013-1-23,18,13,5,12,5,1,84,71,55,30.37,30.12,11,1,11,0.00
2013-1-24,24,18,9,14,10,1,89,73,41,30.59,30.10,9,3,16,0.01
2013-1-25,21,17,10,18,12,6,96,82,69,30.57,30.07,5,0,7,0.00
2013-1-26,30,24,13,25,20,9,92,86,77,30.49,30.13,4,0,8,0.05
2013-1-27,32,22,5,24,16,2,93,78,59,30.60,30.36,2,0,5,0.12
2013-1-28,50,40,31,49,38,24,100,93,74,30.36,30.03,2,0,7,0.45
2013-1-29,66,53,46,58,51,45,98,92,75,30.07,29.77,4,1,9,0.01
2013-1-30,70,57,47,60,53,46,96,88,66,29.78,29.21,9,2,14,0.97
2013-1-31,49,31,24,46,25,17,91,80,64,29.87,29.19,8,4,20,0.04
2013-2-1,25,18,12,22,11,6,89,75,66,30.39,29.83,7,3,14,0.00
2013-2-2,25,18,6,23,14,3,92,85,75,30.38,30.02,5,1,12,0.00
2013-2-3,29,24,19,26,21,15,93,89,79,30.07,29.85,6,1,9,0.07
2013-2-4,29,24,18,26,20,13,93,84,70,30.12,29.89,3,1,9,0.02
2013-2-5,33,30,28,32,28,26,94,93,90,29.97,29.84,1,0,5,0.00
2013-2-6,33,28,14,28,24,12,94,86,69,30.36,29.97,5,1,10,0.02
2013-2-7,43,29,12,32,23,10,93,81,64,30.35,30.01,4,1,8,0.06
2013-2-8,41,32,28,37,30,24,95,89,80,30.16,29.81,9,2,21,0.13
2013-2-9,34,26,17,24,20,15,90,78,58,30.42,30.16,11,3,14,0.01
2013-2-10,53,34,14,32,21,12,100,64,33,30.40,29.99,3,1,7,0.01
2013-2-11,63,48,39,50,38,28,97,72,36,30.00,29.64,8,3,15,0.07
2013-2-12,43,37,26,31,28,23,89,71,60,30.07,29.91,7,2,12,0.00
2013-2-13,41,31,21,34,27,19,100,87,68,29.94,29.69,3,0,5,0.03
2013-2-14,42,35,28,36,31,26,95,86,74,29.98,29.88,5,1,8,0.17
2013-2-15,40,35,29,36,31,26,94,85,69,30.07,29.92,5,1,9,0.00
2013-2-16,31,28,25,27,22,18,92,79,62,30.06,29.96,4,0,5,0.09
2013-2-17,23,20,15,18,12,7,82,69,63,30.31,30.11,8,4,13,0.01
2013-2-18,43,21,2,30,14,-1,91,77,48,30.37,29.94,4,0,6,0.02
2013-2-19,44,36,28,40,32,25,92,86,78,29.94,29.69,7,3,12,0.18
2013-2-20,24,22,20,18,16,14,85,76,66,30.23,30.07,5,2,11,0.18
2013-2-21,26,23,19,20,17,15,88,79,69,30.39,30.20,7,2,11,0.00
2013-2-22,40,33,22,36,28,17,93,82,62,30.32,30.01,7,2,13,0.02
2013-2-23,46,36,29,40,33,27,94,88,77,30.03,29.86,4,0,7,0.00
2013-2-24,33,30,25,28,26,24,95,86,73,30.17,29.87,5,1,10,0.00
2013-2-25,42,36,26,29,26,23,86,69,54,30.21,30.07,4,1,9,0.00
2013-2-26,42,36,24,38,30,22,94,81,58,30.10,29.59,8,2,12,0.63
2013-2-27,44,40,35,40,37,33,96,91,81,29.68,29.56,4,1,8,0.26
2013-2-28,35,34,34,34,32,30,96,92,87,29.81,29.63,4,0,6,0.11
2013-3-1,34,32,29,32,28,24,94,86,81,29.99,29.81,5,3,10,0.04
2013-3-2,30,28,26,26,24,22,89,83,79,29.98,29.92,7,2,9,0.01
2013-3-3,30,28,25,25,23,20,90,82,72,29.98,29.93,6,2,10,0.01
2013-3-4,38,31,22,26,23,20,90,71,55,29.92,29.84,6,2,11,0.01
2013-3-5,47,33,18,31,21,14,94,65,29,29.90,29.48,9,2,20,0.00
2013-3-6,41,36,33,35,32,29,95,84,67,30.23,29.47,7,1,22,0.51
2013-3-7,42,37,34,34,31,29,89,81,64,30.41,30.22,7,2,12,0.00
2013-3-8,39,34,25,32,28,23,92,82,72,30.54,30.33,6,2,11,0.00
2013-3-9,55,36,20,34,28,18,96,75,41,30.35,29.99,3,0,5,0.00
2013-3-10,70,52,31,42,35,28,92,58,31,30.00,29.80,7,1,9,0.00
2013-3-11,64,55,45,50,40,35,91,59,37,29.82,29.49,7,2,0,0.11
2013-3-12,52,41,37,50,37,31,94,86,73,29.80,29.54,6,1,0,0.05
2013-3-13,40,33,29,34,28,21,93,83,63,29.95,29.73,8,2,0,0.05
2013-3-14,39,30,26,26,21,-100,80,71,52,30.09,29.94,8,-2,0,0.00
2013-3-15,51,37,22,38,29,19,92,74,58,30.09,29.74,5,1,0,0.01
2013-3-16,42,38,35,40,36,33,97,92,88,29.89,29.55,5,1,0,0.04
2013-3-17,38,32,30,33,22,-100,92,73,62,30.13,29.88,7,-36,0,0.00
2013-3-18,43,36,31,39,31,24,93,84,70,30.10,29.62,10,3,0,0.36
2013-3-19,48,40,31,42,31,21,95,72,48,29.89,29.62,9,3,0,0.06
2013-3-20,42,32,26,27,15,-100,76,59,47,29.91,29.74,7,-53,0,0.00
2013-4-17,68,62,56,59,56,52,95,81,71,30.25,30.09,3,1,9,0.00
2013-4-18,84,72,55,66,60,53,95,69,48,30.11,29.77,9,2,18,0.00
2013-4-19,73,56,45,63,47,34,89,73,62,29.86,29.47,9,2,17,0.11
2013-4-20,50,42,32,36,31,27,84,66,47,30.43,29.85,12,2,16,0.01
2013-4-21,54,41,25,31,26,23,95,61,34,30.64,30.43,8,1,13,0.00
2013-4-22,62,50,37,37,32,27,84,52,29,30.50,30.30,9,2,13,0.00
2013-4-23,70,54,33,46,38,31,94,60,31,30.31,29.98,6,1,10,0.00
2013-4-24,72,55,41,58,48,36,94,77,55,30.17,29.74,13,2,19,0.29
2013-4-25,59,47,33,41,36,31,95,69,38,30.38,30.17,9,1,15,0.02
2013-4-26,60,48,33,42,37,32,97,69,36,30.50,30.38,6,1,9,0.00
2013-4-27,73,56,32,46,38,31,96,59,31,30.42,30.18,6,1,11,0.00
2013-4-28,61,55,46,54,49,42,92,79,58,30.18,29.96,8,2,14,0.15
2013-4-29,65,58,54,59,54,49,95,86,76,30.03,29.95,5,0,9,0.06
2013-4-30,72,61,51,58,54,49,97,79,59,30.20,30.03,9,2,16,0.00
2013-5-1,75,65,48,58,46,38,96,54,36,30.32,30.20,10,2,18,0.00
2013-5-2,77,60,41,47,42,34,93,56,24,30.36,30.21,9,2,16,0.00
2013-5-3,73,59,40,50,44,37,94,62,31,30.27,30.17,11,3,20,0.00
2013-5-4,71,59,40,50,44,37,91,59,38,30.23,30.09,12,2,19,0.00
2013-5-5,73,58,40,45,39,30,96,55,22,30.16,30.03,11,3,17,0.00
2013-5-6,70,58,40,57,49,37,94,72,55,30.10,30.01,11,3,18,0.00
2013-5-7,68,62,57,59,56,54,93,83,68,30.03,29.94,8,2,15,0.09
2013-5-8,74,65,52,57,54,51,97,69,46,29.99,29.88,6,1,11,0.19
2013-5-9,76,62,50,63,56,49,98,83,49,30.00,29.90,4,0,10,0.06
2013-5-10,76,61,52,67,58,51,97,92,70,30.01,29.81,5,0,8,0.47
2013-5-11,61,58,51,60,56,49,100,94,85,29.85,29.77,5,0,9,0.22
2013-5-12,54,49,40,50,38,33,96,68,49,30.07,29.83,9,1,17,0.00
2013-5-13,55,44,32,37,32,28,95,65,40,30.21,30.07,9,1,13,0.00
2013-5-14,62,47,29,48,37,27,96,73,49,30.23,29.92,8,0,13,0.00
2013-5-15,86,67,48,69,58,45,95,76,52,29.92,29.71,6,1,12,0.01
2013-5-16,79,68,57,67,60,55,97,78,45,29.97,29.76,6,0,11,0.23
2013-5-17,81,66,53,66,59,52,98,80,41,30.10,29.97,5,0,9,0.00
2013-5-18,82,61,51,65,55,50,97,82,49,30.13,30.02,6,0,12,0.00
2013-5-19,78,68,56,68,62,54,97,82,68,30.10,29.97,6,1,10,0.07
2013-5-20,85,71,58,74,66,57,98,84,61,30.03,29.90,4,0,9,0.01
2013-5-21,86,74,61,75,68,60,98,84,61,29.95,29.81,3,0,6,0.00
2013-5-22,86,71,61,72,66,60,98,84,60,29.88,29.75,4,0,12,0.03
2013-5-23,78,65,53,68,62,51,100,92,65,29.87,29.76,9,0,18,0.86
2013-5-24,53,46,40,51,41,35,95,82,63,30.31,29.87,11,3,16,0.05
2013-5-25,62,48,32,46,38,30,97,73,43,30.34,30.24,11,2,17,0.00
2013-5-26,68,51,34,47,41,32,97,71,39,30.32,30.22,9,1,14,0.00
2013-5-27,63,53,37,53,46,35,97,77,57,30.30,30.11,4,0,5,0.00
2013-5-28,79,65,55,71,61,51,99,88,69,30.11,29.98,2,0,6,0.28
2013-5-29,85,72,60,71,64,59,97,79,57,30.09,30.01,4,0,8,0.00
2013-5-30,87,75,58,75,68,56,98,78,54,30.18,30.06,2,0,8,0.00
2013-5-31,87,74,60,74,67,59,99,80,59,30.11,29.97,3,0,8,0.00
2013-6-1,86,75,66,74,68,63,95,80,61,30.00,29.80,4,0,8,0.00
2013-6-2,81,72,65,70,67,63,97,84,62,29.85,29.77,4,0,9,0.16
2013-6-3,67,63,53,65,57,45,95,83,65,30.06,29.85,6,1,11,0.00
2013-6-4,73,58,39,57,48,38,97,72,46,30.18,30.06,5,0,11,0.00
2013-6-5,82,66,47,72,57,46,96,76,57,30.15,29.93,6,0,11,0.00
2013-6-6,70,65,63,66,63,61,97,92,79,29.94,29.77,4,0,9,1.67
2013-6-7,67,64,60,64,62,57,98,92,87,29.84,29.73,7,1,11,0.00
2013-6-8,72,64,57,63,58,54,95,82,63,30.11,29.84,3,0,7,0.00
2013-6-9,83,70,54,69,62,53,98,78,54,30.17,30.00,7,1,14,0.00
2013-6-10,76,69,64,72,67,63,97,94,86,30.01,29.77,3,0,7,0.42
2013-6-11,77,68,63,71,65,62,97,91,73,29.88,29.78,4,0,10,0.02
2013-6-12,83,72,60,74,68,59,99,89,64,29.90,29.73,7,0,11,0.00
2013-6-13,72,68,62,71,66,57,98,94,81,29.77,29.48,12,1,21,1.88
2013-6-14,74,64,55,65,59,53,97,84,61,30.06,29.77,5,0,10,0.00
2013-6-15,78,65,49,63,57,48,98,77,45,30.14,30.00,4,0,9,0.00
2013-6-16,72,66,62,70,64,59,97,93,87,30.02,29.90,1,0,4,0.30
2013-6-17,83,72,64,72,67,63,96,84,59,29.97,29.87,3,0,6,0.00
2013-6-18,78,69,62,71,66,61,98,89,74,29.93,29.82,2,0,6,0.01
2013-6-19,76,66,54,62,56,51,93,73,42,30.15,29.93,7,1,12,0.00
2013-6-20,81,66,48,67,56,47,98,75,43,30.23,30.14,4,0,7,0.00
2013-6-21,85,70,53,69,61,52,98,77,47,30.25,30.14,4,0,9,0.00
2013-6-22,86,73,58,76,67,57,98,84,65,30.20,30.05,3,0,9,0.00
2013-6-23,88,75,63,77,70,62,99,84,60,30.15,30.03,1,0,4,0.00
2013-6-24,88,76,64,77,70,63,99,82,57,30.12,29.98,2,0,6,0.00
2013-7-4,-200,0,200,-100,-100,-100,79,79,79,30.09,30.09,0,0,0,0.00
2013-7-5,-200,0,200,-100,-100,-100,79,79,79,30.09,30.09,0,0,0,0.00
2013-7-6,-200,0,200,-100,-100,-100,79,79,79,30.09,30.09,0,0,0,0.00
2013-7-7,-200,0,200,-100,-100,-100,79,79,79,30.10,30.00,0,0,0,0.00
2013-7-8,76,8,71,71,-82,-100,96,81,79,30.12,30.02,3,-1,9,0.00
2013-7-9,82,73,68,78,71,67,99,94,84,30.10,29.95,3,0,9,1.17
2013-7-10,86,73,66,80,72,65,100,94,73,30.00,29.80,13,0,24,1.95
2013-7-11,77,69,63,67,64,61,99,87,64,29.98,29.88,2,0,11,0.00
2013-7-12,75,70,56,69,65,56,98,86,74,30.11,29.98,2,0,9,0.01
2013-7-13,84,73,62,73,67,60,98,84,64,30.22,30.09,3,0,8,0.00
2013-7-14,90,78,66,78,71,66,98,82,58,30.29,30.21,4,0,14,0.00
2013-7-15,91,78,67,79,72,66,99,83,61,30.32,30.21,1,0,4,0.00
2013-7-16,91,78,69,80,73,68,99,87,63,30.30,30.21,2,0,19,0.32
2013-7-17,90,76,68,81,74,68,99,92,70,30.29,30.15,3,0,12,0.47
2013-7-18,92,80,68,83,76,68,99,89,69,30.18,30.00,0,0,6,0.00
2013-7-19,90,78,71,82,75,71,99,90,69,30.02,29.84,1,0,8,0.03
2013-7-20,82,74,69,76,71,68,97,91,81,29.92,29.83,3,0,8,0.01
2013-7-21,85,73,67,77,70,66,98,90,71,29.96,29.88,5,0,12,0.36
2013-7-22,82,71,64,77,69,63,99,95,78,29.94,29.76,3,0,16,1.22
2013-7-23,84,72,64,75,69,63,99,91,70,29.77,29.68,8,0,20,0.40
2013-7-24,74,66,57,65,60,55,98,83,61,29.99,29.74,5,1,15,0.00
2013-7-25,76,63,51,62,56,50,98,79,53,30.09,29.99,3,1,10,0.01
2013-7-26,80,66,51,68,59,50,98,81,54,30.11,30.00,1,0,9,0.00
2013-7-27,71,65,58,69,63,57,99,96,89,30.01,29.85,2,0,7,0.94
2013-7-28,77,67,56,67,63,55,98,88,65,30.04,29.85,1,0,11,0.32
2013-7-29,74,63,51,65,58,50,98,86,63,30.20,30.04,1,0,8,0.00
2013-7-30,78,65,52,68,60,51,98,84,58,30.25,30.15,2,0,6,0.00
2013-7-31,80,67,56,71,64,55,99,90,65,30.16,29.96,1,0,6,0.02
2013-8-1,82,71,63,71,66,62,98,87,62,29.96,29.84,3,0,12,0.04
2013-8-2,78,68,57,68,63,56,98,85,58,29.98,29.89,2,0,11,0.00
2013-8-3,76,67,58,70,65,56,98,93,80,29.99,29.91,3,0,10,0.25
2013-8-4,74,63,52,65,58,52,98,85,59,30.09,29.98,6,1,13,0.01
2013-8-5,74,62,49,65,57,48,98,85,54,30.14,30.03,2,0,7,0.01
2013-8-6,81,67,53,68,60,52,98,81,51,30.04,29.97,2,0,8,0.00
2013-8-7,84,39,60,77,-7,-100,97,50,73,30.01,29.91,6,-426,15,0.21
2013-8-8,85,51,69,78,14,-100,99,57,77,29.98,29.88,1,-333,10,0.00
2013-8-9,78,73,66,75,72,65,98,94,85,30.00,29.87,3,0,11,0.30
2013-8-10,82,71,62,73,66,61,99,88,64,30.09,30.00,2,0,8,0.00
2013-8-11,83,70,60,74,66,59,98,88,66,30.12,29.99,2,0,8,0.10
2013-8-12,82,73,66,74,69,66,99,89,69,30.05,29.87,0,0,9,0.01
2013-8-13,79,70,58,72,65,53,97,85,65,29.97,29.78,9,2,18,0.02
2013-8-14,69,58,48,60,54,47,98,87,65,30.16,29.97,4,0,14,0.00
2013-8-15,74,59,45,62,52,44,98,81,51,30.22,30.11,2,0,9,0.01
2013-8-16,79,65,50,66,57,49,98,79,45,30.18,30.12,2,0,8,0.00
2013-8-17,78,65,53,64,58,52,98,81,49,30.26,30.18,4,1,14,0.00
2013-8-18,74,66,60,68,63,59,97,91,76,30.23,30.14,1,0,8,0.03
2013-8-26,84,70,56,73,65,56,99,86,63,30.26,30.04,0,0,7,0.00
2013-8-27,81,74,68,76,71,67,97,91,83,30.03,29.93,1,0,12,0.01
2013-8-28,77,72,70,76,71,69,99,97,91,29.95,29.81,2,0,15,1.36
2013-8-29,84,74,67,74,70,66,98,88,65,30.02,29.90,1,0,10,0.00
2013-8-30,86,74,62,76,70,61,99,89,72,30.01,29.83,0,0,7,0.00
2013-8-31,85,75,68,76,71,67,99,90,69,29.85,29.76,1,0,7,0.01
2013-9-1,80,72,68,74,70,67,98,94,82,29.84,29.77,1,0,8,0.01
2013-9-2,84,73,66,77,70,65,99,91,73,29.83,29.71,2,0,10,0.06
2013-9-3,74,65,56,66,61,54,99,86,63,30.04,29.81,5,1,13,0.01
2013-9-4,78,62,49,65,57,48,99,86,59,30.15,30.04,1,0,7,0.01
2013-9-5,74,65,54,63,55,50,99,73,56,30.21,30.08,6,1,15,0.00
2013-9-6,73,57,42,59,49,41,98,77,39,30.28,30.15,3,0,9,0.00
2013-9-7,78,61,44,66,55,43,98,83,51,30.15,29.96,1,0,6,0.01
2013-9-8,78,68,59,71,64,58,98,88,71,30.05,29.92,3,0,11,0.01
2013-9-9,82,68,56,75,65,55,98,91,74,30.10,29.99,3,0,13,0.26
2013-9-10,88,76,66,81,72,65,99,91,74,30.13,30.04,1,0,7,0.00
2013-9-11,88,75,70,81,73,69,99,94,73,30.14,30.00,3,0,13,0.20
2013-9-12,77,70,61,74,69,59,99,96,84,30.00,29.78,5,0,14,0.24
2013-9-13,68,60,53,61,56,48,98,87,70,30.04,29.80,7,1,16,0.07
2013-9-14,65,55,46,55,49,44,96,81,55,30.19,30.03,3,0,9,0.00
2013-9-15,70,56,41,62,52,40,98,86,63,30.22,30.08,2,0,10,0.01
2013-9-16,69,60,52,60,56,50,98,86,66,30.32,30.08,3,0,10,0.29
2013-9-17,69,55,44,56,49,43,97,82,50,30.41,30.27,3,0,9,0.00
2013-9-18,73,56,41,60,50,40,98,83,53,30.29,30.13,2,0,8,0.01
2013-9-19,76,64,55,67,61,54,98,90,64,30.16,30.03,1,0,7,0.00
2013-9-20,81,68,54,73,64,53,99,90,73,30.05,29.83,1,0,7,0.00
2013-9-21,71,63,57,68,62,56,98,96,88,29.83,29.66,5,0,15,1.18
2013-9-22,63,57,52,57,53,50,99,87,67,30.03,29.79,5,1,12,0.02
2013-9-23,57,52,41,51,47,40,95,84,68,30.17,30.02,2,0,9,0.00
2013-9-24,68,51,36,56,45,35,98,83,52,30.15,29.99,2,0,9,0.00
2013-9-25,75,57,43,61,50,42,98,82,43,30.01,29.89,2,0,9,0.00
2013-9-26,74,58,44,61,51,43,98,81,47,30.08,29.95,3,0,9,0.00
2013-9-27,74,58,43,61,52,42,98,83,54,30.21,30.09,2,0,8,0.01
2013-9-28,72,58,45,59,52,44,98,82,59,30.28,30.17,4,1,14,0.00
2013-9-29,74,59,45,64,54,44,98,85,61,30.17,30.01,3,0,12,0.00
2013-9-30,70,59,49,65,57,48,98,92,81,30.07,29.99,0,0,5,0.00
2013-10-1,77,64,56,67,60,54,98,88,66,30.09,30.00,3,0,10,0.00
2013-10-2,79,65,54,70,61,53,99,89,69,30.11,30.03,1,0,6,0.01
2013-10-3,78,66,55,70,63,54,99,90,73,30.11,30.01,1,0,11,0.07
2013-10-4,80,69,62,72,66,61,99,92,71,30.10,30.01,3,0,12,0.19
2013-10-5,82,69,62,73,67,62,99,92,70,30.09,29.97,2,0,10,0.17
2013-10-6,84,72,63,71,66,62,99,83,57,29.98,29.75,2,0,11,0.00
2013-10-7,71,57,44,64,52,42,96,84,67,30.14,29.68,2,0,12,0.37
2013-10-8,64,50,37,53,45,36,100,84,55,30.33,30.14,5,0,13,0.00
2013-10-9,68,51,38,52,44,37,98,80,47,30.36,30.26,4,0,12,0.01
2013-10-10,70,55,43,53,47,42,97,77,47,30.26,30.11,2,0,10,0.00
2013-10-11,59,56,53,58,53,49,96,92,82,30.11,30.06,2,0,7,0.46
2013-10-12,74,62,51,66,58,50,100,89,72,30.17,30.07,3,0,10,0.00
2013-10-13,71,62,55,63,59,54,98,88,74,30.26,30.16,4,0,11,0.02
2013-10-14,62,59,56,60,58,55,97,94,91,30.30,30.23,2,0,8,0.09
2013-10-15,71,60,49,64,57,48,100,90,71,30.23,29.99,2,0,8,0.01
2013-10-16,64,58,52,62,57,51,100,96,92,30.00,29.88,0,0,3,0.27
2013-10-17,63,56,50,61,54,49,97,94,88,29.92,29.67,7,0,18,0.79
2013-10-18,62,52,40,50,46,39,97,83,57,30.05,29.91,3,0,8,0.00
2013-10-19,54,45,34,50,42,33,98,91,80,30.00,29.79,2,0,12,0.07
2013-10-20,58,45,36,46,40,35,97,83,55,30.08,29.98,3,0,11,0.01
2013-10-21,66,48,33,46,40,32,98,76,40,30.10,29.88,4,0,9,0.00
2013-10-22,52,46,39,49,40,33,94,80,51,29.98,29.85,6,0,16,0.19
2013-10-23,43,40,36,41,38,34,95,93,90,29.96,29.78,7,0,19,0.14
2013-10-24,46,39,31,36,34,29,96,84,63,30.19,29.96,3,0,18,0.00
2013-10-25,48,38,28,38,33,26,100,83,58,30.38,30.18,2,0,10,0.01
2013-10-26,51,40,28,36,31,26,95,72,47,30.30,29.94,4,1,14,0.01
2013-10-27,53,41,29,41,34,27,96,76,52,30.14,30.01,6,0,14,0.00
2013-10-28,58,41,27,43,34,25,97,80,46,30.33,30.14,3,0,8,0.00
2013-10-29,59,44,30,45,38,29,97,82,51,30.41,30.30,3,0,6,0.00
2013-10-30,65,52,40,55,47,38,95,85,64,30.30,30.13,1,0,4,0.00
2013-10-31,68,62,56,61,58,54,97,88,76,30.13,29.48,5,1,16,0.18
2013-11-1,71,59,44,62,51,42,94,76,56,29.70,29.34,6,2,28,0.14
2013-11-2,54,49,45,47,44,42,94,86,70,29.98,29.66,3,0,10,0.02
2013-11-3,48,41,28,43,35,25,95,78,56,30.49,29.97,5,1,15,0.00
2013-11-4,47,36,25,32,27,23,93,70,44,30.60,30.47,4,0,11,0.00
2013-11-5,59,46,34,40,35,30,91,68,43,30.56,30.37,3,0,8,0.00
2013-11-6,73,54,32,58,45,29,96,74,51,30.37,29.94,6,1,16,0.02
2013-11-7,61,47,39,58,42,30,96,84,62,30.15,29.87,9,1,14,0.74
2013-11-8,45,38,26,35,30,24,92,76,55,30.34,30.11,5,1,19,0.00
2013-11-9,58,41,24,36,29,22,96,67,34,30.34,30.00,6,1,15,0.01
2013-11-10,53,45,32,40,35,28,87,67,48,30.30,29.99,5,1,17,0.00
2013-11-11,50,39,26,41,32,24,95,77,46,30.31,30.07,6,1,14,0.04
2013-11-12,40,32,28,36,27,22,93,82,60,30.52,30.12,9,3,17,0.17
2013-11-13,37,30,20,27,24,18,94,78,57,30.58,30.43,3,0,11,0.04
2013-11-14,50,35,26,28,25,22,89,69,39,30.43,30.22,4,1,12,0.00
2013-11-15,57,43,27,41,30,24,89,64,32,30.27,30.17,4,1,12,0.00
2013-11-16,62,50,33,51,44,31,96,80,65,30.27,30.06,3,0,10,0.00
2013-11-17,62,56,45,60,54,43,96,92,83,30.06,29.55,5,1,16,0.54
2013-11-18,57,50,40,54,39,29,88,66,50,30.07,29.64,8,3,22,0.00
2013-11-19,40,36,25,30,28,22,91,72,64,30.45,30.07,7,2,18,0.00
2013-11-20,48,34,20,27,21,18,95,65,30,30.53,30.41,8,2,18,0.00
2013-11-21,57,42,26,43,34,21,90,73,52,30.49,30.26,3,0,10,0.00
2013-11-22,54,49,38,53,47,34,97,93,81,30.26,30.07,11,2,24,0.28
2013-11-23,39,33,22,34,26,11,92,76,57,30.39,30.16,11,3,23,0.00
2013-11-24,27,21,13,16,13,10,88,73,56,30.60,30.38,9,3,20,0.00
2013-11-25,38,25,11,26,14,9,91,65,35,30.58,30.28,3,0,10,0.00
2013-11-26,37,34,32,34,32,27,96,94,66,30.29,29.75,3,0,8,1.07
2013-11-27,34,30,24,33,27,19,96,88,78,30.17,29.74,9,3,16,0.05
2013-11-28,30,26,16,24,20,13,89,77,63,30.48,30.17,2,0,10,0.05
2013-11-29,36,28,20,27,22,17,93,81,61,30.71,30.48,1,0,4,0.07
2013-11-30,40,28,18,28,23,16,94,81,58,30.69,30.29,4,0,11,0.00
2013-12-1,46,36,23,36,30,21,95,83,63,30.29,30.02,2,0,6,0.00
2013-12-2,51,41,34,41,36,32,94,84,66,30.02,29.85,1,0,4,0.00
2013-12-3,55,42,37,46,38,35,97,88,65,29.94,29.88,1,0,5,0.02
2013-12-4,61,46,32,51,42,31,100,88,70,30.03,29.91,1,0,4,0.00
2013-12-5,65,55,42,59,52,40,98,91,75,30.06,29.88,9,1,16,1.24
2013-12-6,41,35,30,40,34,28,95,93,88,30.32,30.04,5,2,11,0.44
2013-12-7,33,27,19,29,24,16,94,86,74,30.64,30.30,3,1,8,0.00
2013-12-8,33,25,18,31,22,15,100,87,80,30.64,30.14,4,1,10,0.00
2013-12-9,39,36,32,38,33,27,97,92,83,30.18,30.01,3,0,8,0.33
2013-12-10,32,28,23,28,22,15,92,78,57,30.32,30.07,4,1,10,0.01
2013-12-11,31,25,17,24,18,13,89,74,59,30.42,30.29,7,1,12,0.00
2013-12-12,24,20,14,16,11,8,83,67,55,30.53,30.33,4,1,11,0.00
2013-12-13,36,26,17,24,17,9,89,68,55,30.33,30.25,3,0,9,0.01
2013-12-14,38,33,27,37,30,24,99,90,77,30.31,29.70,4,0,11,0.40
2013-12-15,40,32,23,39,28,14,97,86,66,30.07,29.66,6,2,14,0.05
2013-12-16,27,24,21,24,19,15,88,80,70,30.23,30.07,4,0,9,0.00
2013-12-17,35,32,27,34,29,24,100,89,78,30.10,29.99,3,0,6,0.07
2013-12-18,32,27,18,26,23,16,94,84,73,30.25,30.08,3,1,8,0.00
2013-12-19,54,38,23,40,30,22,94,74,53,30.17,30.07,4,1,11,0.03
2013-12-20,58,49,32,51,42,30,93,78,54,30.07,29.92,3,1,10,0.05
2013-12-21,60,57,54,60,55,50,98,93,85,29.92,29.66,3,0,7,0.91
2013-12-22,68,60,54,62,56,50,98,89,79,29.94,29.57,8,2,14,0.25
2013-12-23,55,40,32,50,37,24,96,87,71,30.31,29.93,7,1,14,0.13
2013-12-24,32,25,14,26,18,10,90,75,61,30.58,30.26,8,2,16,0.00
2013-12-25,28,20,11,23,15,8,91,80,66,30.59,30.30,3,0,7,0.00
2013-12-26,37,31,22,30,25,18,93,80,61,30.41,30.20,5,1,12,0.05
2013-12-27,42,30,20,31,24,17,92,80,60,30.43,30.33,2,0,5,0.00
2013-12-28,53,37,24,35,29,22,92,75,48,30.33,30.11,5,1,10,0.00
2013-12-29,42,40,34,42,38,30,97,93,80,30.11,29.68,3,0,8,0.62
2013-12-30,41,29,24,39,25,18,94,85,75,30.24,29.87,7,2,15,0.00
2013-12-31,28,25,22,24,21,17,92,84,75,30.38,30.13,7,1,13,0.00
2014-1-1,39,31,26,30,25,21,92,80,68,30.39,30.09,2,0,7,0.02
2014-1-2,31,28,13,28,25,9,93,89,84,30.09,29.71,8,1,12,0.00